Pontiac, MI

4:02 AM EDT on May 28, 2017 (GMT -0400)
Oakland County International

Weather History for KPTK - January, 2013

Change the Weather History Date:

Wednesday, January 23, 2013

  Actual Average Record
Temperature  
Mean Temperature 8 °F -  
Max Temperature 15 °F 26 °F 54 °F (1999)
Min Temperature 1 °F 13 °F -4 °F (2004)
Degree Days  
Heating Degree Days 57    
Moisture  
Dew Point 5 °F    
Average Humidity 77    
Maximum Humidity 85    
Minimum Humidity 59    
Precipitation  
Precipitation 0.00 in - - ()
Snow  
Snow 0.00 in - - ()
Snow Depth 1.00 in    
Sea Level Pressure  
Sea Level Pressure 30.12 in    
Wind  
Wind Speed 6 mph (SW)    
Max Wind Speed 12 mph    
Max Gust Speed -    
Visibility 5 miles    
Events Snow    
Averages and records for this station are not official NWS values.
T = Trace of Precipitation, MM = Missing Value Source: NWS Daily Summary

Daily Weather History Graph

Daily Weather History Graph

Search for Another Location

Airport or City:

Trip Planner

Search our weather history database for the weather conditions in past years. The results will help you decide how hot, cold, wet, or windy it might be!

Date:

Astronomy

Jan. 23, 2013 Rise Set
Actual Time 7:55 AM EST 5:35 PM EST
Civil Twilight 7:25 AM EST 6:06 PM EST
Nautical Twilight 6:51 AM EST 6:40 PM EST
Astronomical Twilight 6:17 AM EST 7:14 PM EST
Moon 2:44 PM EST (1/23) 5:07 AM EST (1/23)
Length of Visible Light 10h 40m
Length of Day
9h 39m
Waxing Gibbous, 89% of the Moon is Illuminated
Jan 23
Waxing Gibbous
Jan 26
Full
Feb 3
Last Quarter
Feb 10
New
Feb 17
First Quarter

Hourly Weather History & Observations

Time (EST) Temp. Windchill Dew Point Humidity Pressure Visibility Wind Dir Wind Speed Gust Speed Precip Events Conditions
12:53 AM 3.9 °F -6.9 °F -2.0 °F 76% 30.29 in 10.0 mi West 5.8 mph - 0.00 in   Overcast
1:53 AM 3.9 °F -9.4 °F -2.9 °F 73% 30.28 in 10.0 mi West 8.1 mph - N/A   Overcast
2:53 AM 3.9 °F -5.3 °F -2.9 °F 73% 30.29 in 10.0 mi West 4.6 mph - N/A   Overcast
3:53 AM 1.9 °F -5.6 °F -2.9 °F 80% 30.28 in 10.0 mi WSW 3.5 mph - N/A   Clear
4:53 AM 1.0 °F -8.7 °F -4.0 °F 79% 30.28 in 10.0 mi WSW 4.6 mph - N/A   Clear
5:53 AM 1.0 °F -8.7 °F -4.0 °F 79% 30.27 in 10.0 mi WSW 4.6 mph - N/A   Scattered Clouds
6:53 AM 1.0 °F -6.7 °F -4.0 °F 79% 30.27 in 10.0 mi WSW 3.5 mph - N/A   Scattered Clouds
7:53 AM 1.0 °F - -2.9 °F 83% 30.27 in 10.0 mi Calm Calm - N/A   Scattered Clouds
8:53 AM 3.0 °F -6.4 °F -2.9 °F 76% 30.26 in 10.0 mi SSW 4.6 mph - N/A   Mostly Cloudy
9:53 AM 6.1 °F -6.8 °F -2.0 °F 69% 30.26 in 10.0 mi SSW 8.1 mph - N/A   Mostly Cloudy
10:53 AM 9.0 °F -2.2 °F -2.9 °F 59% 30.25 in 10.0 mi SW 6.9 mph - N/A   Overcast
11:51 AM 10.4 °F -2.4 °F 1.4 °F 67% 30.16 in 2.5 mi South 9.2 mph - 0.00 in Snow Light Snow
11:52 AM 10.0 °F -1.9 °F 1.9 °F 70% 30.23 in 2.5 mi South 8.1 mph - 0.00 in Snow Light Snow
12:16 PM 10.4 °F -2.4 °F 1.4 °F 67% 30.14 in 3.0 mi SSW 9.2 mph - 0.00 in Snow Light Snow
12:49 PM 12.2 °F -1.8 °F 5.0 °F 73% 30.12 in 2.5 mi SSW 11.5 mph - 0.00 in Snow Light Snow
12:53 PM 12.0 °F -0.4 °F 5.0 °F 73% 30.18 in 2.0 mi South 9.2 mph - 0.00 in Snow Light Snow
1:00 PM 12.2 °F -1.8 °F 5.0 °F 73% 30.11 in 3.0 mi SW 11.5 mph - 0.00 in Snow Light Snow
1:24 PM 12.2 °F -1.8 °F 5.0 °F 73% 30.09 in 2.5 mi SW 11.5 mph - 0.00 in Snow Light Snow
1:43 PM 12.2 °F 1.7 °F 6.8 °F 79% 30.08 in 1.8 mi WSW 6.9 mph - 0.00 in Snow Light Snow
1:53 PM 12.9 °F 0.7 °F 7.0 °F 77% 30.15 in 1.8 mi SW 9.2 mph - 0.00 in Snow Light Snow
2:09 PM 14.0 °F 2.0 °F 6.8 °F 73% 30.07 in 2.0 mi WSW 9.2 mph - 0.00 in Snow Light Snow
2:53 PM 14.0 °F 2.0 °F 8.1 °F 77% 30.13 in 2.5 mi SW 9.2 mph - 0.00 in Snow Light Snow
3:27 PM 15.8 °F 5.1 °F 8.6 °F 73% 30.05 in 1.8 mi SSW 8.1 mph - 0.00 in Snow Light Snow
3:29 PM 15.8 °F 6.1 °F 8.6 °F 73% 30.05 in 3.0 mi SSW 6.9 mph - 0.00 in Snow Light Snow
3:53 PM 15.8 °F 5.1 °F 6.8 °F 68% 30.05 in 3.0 mi WSW 8.1 mph - N/A   Haze
4:09 PM 15.8 °F 7.2 °F 6.8 °F 68% 30.04 in 9.0 mi SSW 5.8 mph - N/A   Overcast
4:41 PM 15.8 °F 8.6 °F 8.6 °F 73% 30.04 in 7.0 mi Variable 4.6 mph - 0.00 in Snow Light Snow
4:53 PM 15.1 °F 5.2 °F 7.0 °F 70% 30.10 in 7.0 mi SW 6.9 mph - 0.00 in Snow Light Snow
5:01 PM 15.8 °F 5.1 °F 6.8 °F 68% 30.03 in 9.0 mi SW 8.1 mph - 0.00 in Snow Light Snow
5:08 PM 15.8 °F 6.1 °F 6.8 °F 68% 30.03 in 3.0 mi SW 6.9 mph - 0.00 in Snow Light Snow
5:17 PM 15.8 °F 5.1 °F 6.8 °F 68% 30.03 in 2.0 mi WSW 8.1 mph - 0.00 in Snow Light Snow
5:33 PM 14.0 °F 2.0 °F 6.8 °F 73% 30.04 in 1.2 mi WSW 9.2 mph - 0.00 in Snow Light Snow
5:49 PM 14.0 °F 3.9 °F 8.6 °F 79% 30.03 in 2.5 mi SW 6.9 mph - 0.00 in Snow Light Snow
5:53 PM 14.0 °F 6.5 °F 8.1 °F 77% 30.10 in 2.5 mi SW 4.6 mph - 0.00 in Snow Light Snow
6:00 PM 14.0 °F 6.5 °F 8.6 °F 79% 30.03 in 3.0 mi SW 4.6 mph - 0.00 in Snow Light Snow
6:34 PM 14.0 °F 3.9 °F 6.8 °F 73% 30.03 in 6.0 mi SW 6.9 mph - 0.00 in Snow Light Snow
6:53 PM 14.0 °F 5.1 °F 8.1 °F 77% 30.10 in 6.0 mi SW 5.8 mph - 0.00 in Snow Light Snow
7:53 PM 12.9 °F 2.6 °F 8.1 °F 81% 30.10 in 3.0 mi WSW 6.9 mph - 0.00 in Snow Light Snow
8:26 PM 12.2 °F 4.3 °F 8.6 °F 85% 30.02 in 2.5 mi SW 4.6 mph - 0.00 in Snow Light Snow
8:50 PM 12.2 °F 4.3 °F 8.6 °F 85% 30.03 in 3.0 mi SW 4.6 mph - 0.00 in Snow Light Snow
8:53 PM 12.9 °F 6.9 °F 9.0 °F 84% 30.09 in 3.0 mi SW 3.5 mph - 0.00 in Snow Light Snow
9:06 PM 12.2 °F 4.3 °F 8.6 °F 85% 30.03 in 2.0 mi SW 4.6 mph - 0.00 in Snow Light Snow
9:53 PM 12.9 °F 6.9 °F 9.0 °F 84% 30.10 in 2.0 mi WSW 3.5 mph - 0.00 in Snow Light Snow
10:09 PM 12.2 °F - 8.6 °F 85% 30.04 in 2.5 mi Calm Calm - 0.00 in Snow Light Snow
10:27 PM 12.2 °F 4.3 °F 8.6 °F 85% 30.04 in 2.5 mi West 4.6 mph - 0.00 in Snow Light Snow
10:48 PM 12.2 °F 1.7 °F 8.6 °F 85% 30.04 in 2.5 mi West 6.9 mph - 0.00 in Snow Light Snow
10:53 PM 12.9 °F 3.8 °F 9.0 °F 84% 30.11 in 2.5 mi West 5.8 mph - 0.00 in Snow Light Snow
11:01 PM 12.2 °F 2.9 °F 8.6 °F 85% 30.04 in 5.0 mi WNW 5.8 mph - 0.00 in Snow Light Snow
11:12 PM 12.2 °F 1.7 °F 8.6 °F 85% 30.05 in 2.0 mi West 6.9 mph - 0.00 in Snow Light Snow
11:19 PM 12.2 °F 2.9 °F 8.6 °F 85% 30.05 in 1.5 mi WNW 5.8 mph - 0.00 in Snow Light Snow
11:32 PM 12.2 °F 2.9 °F 8.6 °F 85% 30.05 in 2.5 mi WNW 5.8 mph - 0.00 in Snow Light Snow
11:49 PM 12.2 °F 2.9 °F 8.6 °F 85% 30.06 in 2.5 mi WNW 5.8 mph - 0.00 in Snow Light Snow
11:53 PM 12.9 °F 2.6 °F 9.0 °F 84% 30.12 in 2.5 mi WNW 6.9 mph - 0.00 in Snow Light Snow